Regional Weather Roundup
Issued by NWS Sioux Falls, SD

Home | Current Version | Previous Version | Graphics & Text | Print | Product List | Glossary Off
Versions: 1 2 3 4 5 6 7 8 9 10 11 12 13 14 15 16 17 18 19 20 21 22 23 24 25 26 27 28 29 30 31 32 33 34 35 36 37 38 39 40 41 42 43 44 45 46 47 48 49 50

794
ASUS43 KFSD 080610
RWRFSD

WEATHER ROUNDUP FOR SE SOUTH DAKOTA/SW MINNESOTA/NW IOWA
NATIONAL WEATHER SERVICE SIOUX FALLS SD
1200 AM CST MON FEB 08 2016

NOTE: "FAIR" INDICATES FEW OR NO CLOUDS BELOW 12,000 FEET WITH NO
SIGNIFICANT WEATHER AND OR OBSTRUCTIONS TO VISIBILITY.


SDZ038>040-050-052>070-080700-
SOUTHEAST SOUTH DAKOTA

CITY           SKY/WX    TMP DP  RH WIND       PRES   REMARKS
BROOKINGS      FLURRIES  20  15  81 N26G32    29.94S WCI   2
CHAMBERLAIN    CLOUDY    32  18  56 NW31G38   30.11S WCI  17
6HR MIN TEMP:  32; 6HR MAX TEMP:  34;

HURON          CLOUDY    28  19  69 NW26G37   30.05R WCI  13
6HR MIN TEMP:  27; 6HR MAX TEMP:  30; 6HR PCP: TRACE;

MADISON        CLOUDY    21  21 100 N28G43    29.97S WCI   3
MITCHELL       CLEAR     29  20  69 NW28G37   30.06S WCI  14
6HR MIN TEMP:  29; 6HR MAX TEMP:  33; 6HR PCP: TRACE;

SIOUX FALLS    CLOUDY    24  16  71 N23G39    29.97R WCI   9
6HR MIN TEMP:  24; 6HR MAX TEMP:  29; 6HR PCP: TRACE;

WINNER         MOCLDY    32  18  56 NW26G36   30.16R WCI  18
YANKTON        CLOUDY   N/A N/A N/A NW31G47   30.02F
$$

MNZ071-072-080-081-089-090-097-098-080700-
SOUTHWEST MINNESOTA

CITY           SKY/WX    TMP DP  RH WIND       PRES   REMARKS
FAIRMONT       CLOUDY    18  10  73 NW28      29.83R WCI  -1
JACKSON        CLOUDY    19  16  86 NW29G35   29.85F WCI   1
LUVERNE        CLOUDY    23  19  86 N23G35    29.95R WCI   7
MARSHALL       LGT SNOW  18  12  79 N28G39    29.91S VSB 1   WCI  -1
6HR MIN TEMP:  17; 6HR MAX TEMP:  26; 6HR PCP: TRACE;

MONTEVIDEO     LGT SNOW  14  12  92 N36G41    29.93S WCI  -8
PIPESTONE      LGT SNOW  21  12  68 N21G35    29.92S WCI   6
REDWOOD FALLS  LGT SNOW  16  10  77 NW28G47   29.88R WCI  -4
TRACY          LGT SNOW  18  15  88 NW25G37   29.91R VSB 3/4 WCI   0
WINDOM         LGT SNOW  18  16  93 NW31      29.85S VSB 3/4 WCI  -2
WORTHINGTON    CLOUDY   N/A N/A N/A NW30G39   29.89S
$$

IAZ001>003-012>014-020>022-031-032-NEZ013-014-SDZ071-080700-
NORTHWEST IOWA

CITY           SKY/WX    TMP DP  RH WIND       PRES   REMARKS
CHEROKEE       PTCLDY    23  19  83 NW20G25   29.94R WCI   8
DENISON        LGT SNOW  27  23  86 N26       29.92S WCI  11
ESTHERVILLE    LGT SNOW  18  16  92 NW26G32   29.85F VSB 3/4 WCI  -1
LE MARS        MIX PCPN  25  25 100 NW31G40   29.98S WCI   8
ORANGE CITY    LGT SNOW  23  21  93 N18G32    29.94R VSB 1   WCI   9
SHELDON        LGT SNOW  21  19  93 NW28G36   29.91S WCI   3
SIOUX CITY     CLOUDY    30  21  69 NW24G35   29.97S WCI  16
6HR MIN TEMP:  29; 6HR MAX TEMP:  35; 6HR PCP: TRACE;

SPENCER        LGT SNOW  20  14  77 NW20      29.90R WCI   4
6HR MIN TEMP:  20; 6HR MAX TEMP:  31; 6HR PCP: TRACE;

STORM LAKE     CLOUDY    21  14  73 NW35G41   29.90S WCI   2
$$

ABBREVIATIONS USED IN REMARKS
   TC - TEMPERATURE IN CELSIUS
  WCI - WIND CHILL INDEX
   HX - HEAT INDEX
  VSB - VISIBILITY





USA.gov is the U.S. government's official web portal to all federal, state and local government web resources and services.